Back to catalog

STARLINK-2383

AliveCommunicationsVLEO
NORAD 47802·PAYLOAD·🇺🇸 United States

Launched Mar 11, 2021 from Cape Canaveral Space Force Station

Loading…

Next Passes (next 24 hours)

TLE

FreshSource: CelesTrak SupGP

Epoch: Sep 15, 2026, 02:36 UTC

1 47802C 21018R   26258.10881944 -.00000068  00000+0 -21964-5 0  2581
2 47802  53.1584  94.3456 0001305  72.2126 109.4841 15.31701503    13

Track STARLINK-2383 in real time with AllMySat

Download on the App Store